Preston, Minnesota, United States (55965)
Lat: 43.67N, Lon: 92.08W
Wx Zone: MNZ095
Local Info
Past Weather Observations for Today

NOTE: This archive is for the closest National Weather Service station to Preston. Information may differ from the station used for current weather conditions.

Click here for Long-term Archive

Time Weather Temperature Dewpoint Humidity Pressure Winds Precip Visibility
13:16
Partly Cloudy
82°F / 28°C 75°F / 24°C 79% 29.98 in
(1015 mb)
W 4.6 mph
(W 7 kph)
- 10SM
12:56
Partly Cloudy
82°F / 28°C 75°F / 24°C 79% 29.98 in
(1015 mb)
N 3.5 mph
(N 6 kph)
- 10SM
12:36
Partly Cloudy
82°F / 28°C 75°F / 24°C 79% 30.01 in
(1016 mb)
Calm - 10SM
12:16
Partly Cloudy
81°F / 27°C 75°F / 24°C 84% 30.01 in
(1016 mb)
Calm - 10SM
11:56
Partly Cloudy
81°F / 27°C 75°F / 24°C 84% 30.01 in
(1016 mb)
Calm - 10SM
11:36
Mostly Cloudy
79°F / 26°C 73°F / 23°C 84% 30.01 in
(1016 mb)
Calm - 10SM
11:16
Partly Cloudy
79°F / 26°C 73°F / 23°C 84% 30.01 in
(1016 mb)
Calm - 10SM
10:56
Mostly Cloudy
79°F / 26°C 73°F / 23°C 84% 29.98 in
(1015 mb)
Calm - 10SM
10:36
Mostly Cloudy
77°F / 25°C 75°F / 24°C 94% 29.98 in
(1015 mb)
Calm - 7SM
10:15
Mostly Cloudy
77°F / 25°C 73°F / 23°C 89% 29.98 in
(1015 mb)
Calm - 10SM
09:56
Overcast
75°F / 24°C 73°F / 23°C 94% 29.98 in
(1015 mb)
Calm - 10SM
09:36
Overcast
73°F / 23°C 73°F / 23°C 100% 29.98 in
(1015 mb)
Calm - 7SM
09:16
Overcast
73°F / 23°C 73°F / 23°C 100% 29.98 in
(1015 mb)
NNE 5.8 mph
(NNE 9 kph)
- 7SM
08:56
Overcast
Fog And Mist
72°F / 22°C 72°F / 22°C 100% 29.98 in
(1015 mb)
NNE 4.6 mph
(NNE 7 kph)
- 4SM
08:36
Overcast
Fog And Mist
72°F / 22°C 72°F / 22°C 100% 29.95 in
(1014 mb)
N 5.8 mph
(N 9 kph)
- 1 3/4SM
08:16
Overcast
Fog And Mist
72°F / 22°C 72°F / 22°C 100% 29.95 in
(1014 mb)
N 3.5 mph
(N 6 kph)
- 3/4SM
07:56
Overcast
Fog
72°F / 22°C 72°F / 22°C 100% 29.95 in
(1014 mb)
NE 6.9 mph
(NE 11 kph)
- 1/2SM
07:35
Overcast
Fog
72°F / 22°C 72°F / 22°C 100% 29.95 in
(1014 mb)
N 5.8 mph
(N 9 kph)
- 1/4SM
07:16
Overcast
Fog
72°F / 22°C 72°F / 22°C 100% 29.95 in
(1014 mb)
N 5.8 mph
(N 9 kph)
- 1/4SM
06:55
Overcast
Fog
72°F / 22°C 72°F / 22°C 100% 29.95 in
(1014 mb)
NNW 3.5 mph
(NNW 6 kph)
- 1/4SM
06:36
Overcast
Fog
70°F / 21°C 72°F / 22°C N/A 29.92 in
(1013 mb)
NW 5.8 mph
(NW 9 kph)
- 1/2SM
06:16
Overcast
Fog And Mist
70°F / 21°C 72°F / 22°C N/A 29.92 in
(1013 mb)
NW 3.5 mph
(NW 6 kph)
- 1 3/4SM
05:56
Overcast
Fog
70°F / 21°C 70°F / 21°C 100% 29.92 in
(1013 mb)
Calm - 1/4SM
05:36
Overcast
Fog
70°F / 21°C 70°F / 21°C 100% 29.92 in
(1013 mb)
SW 3.5 mph
(SW 6 kph)
- M1/4SM
05:16
Overcast
Fog
70°F / 21°C 70°F / 21°C 100% 29.92 in
(1013 mb)
S 3.5 mph
(S 6 kph)
- M1/4SM
04:56
Overcast
Fog
70°F / 21°C 70°F / 21°C 100% 29.92 in
(1013 mb)
Calm - 1/4SM
04:36
Overcast
Fog
70°F / 21°C 70°F / 21°C 100% 29.92 in
(1013 mb)
S 4.6 mph
(S 7 kph)
- 1/4SM
04:16
Overcast
Fog And Mist
70°F / 21°C 70°F / 21°C 100% 29.89 in
(1012 mb)
SW 3.5 mph
(SW 6 kph)
- 3/4SM
03:56
Partly Cloudy
Fog And Mist
70°F / 21°C 70°F / 21°C 100% 29.89 in
(1012 mb)
SW 4.6 mph
(SW 7 kph)
- 2 1/2SM
03:36
Clear
Fog And Mist
70°F / 21°C 70°F / 21°C 100% 29.92 in
(1013 mb)
SW 6.9 mph
(SW 11 kph)
- 3SM
03:15
Clear
Fog And Mist
70°F / 21°C 70°F / 21°C 100% 29.92 in
(1013 mb)
SW 6.9 mph
(SW 11 kph)
- 3SM
02:56
Clear
Fog And Mist
70°F / 21°C 72°F / 22°C N/A 29.92 in
(1013 mb)
SSE 8.1 mph
(SSE 13 kph)
- 4SM
02:36
Partly Cloudy
Fog And Mist
70°F / 21°C 70°F / 21°C 100% 29.92 in
(1013 mb)
SSE 9.2 mph
(SSE 15 kph)
- 4SM
02:16
Overcast
Fog And Mist
70°F / 21°C 70°F / 21°C 100% 29.89 in
(1012 mb)
S 6.9 mph
(S 11 kph)
- 3SM
01:56
Mostly Cloudy
Fog And Mist
70°F / 21°C 72°F / 22°C N/A 29.89 in
(1012 mb)
S 6.9 mph
(S 11 kph)
- 5SM
01:36
Partly Cloudy
Fog And Mist
70°F / 21°C 70°F / 21°C 100% 29.89 in
(1012 mb)
S 6.9 mph
(S 11 kph)
- 5SM
01:15
Clear
Fog And Mist
70°F / 21°C 70°F / 21°C 100% 29.89 in
(1012 mb)
S 5.8 mph
(S 9 kph)
- 5SM
00:56
Clear
Fog And Mist
70°F / 21°C 70°F / 21°C 100% 29.89 in
(1012 mb)
S 5.8 mph
(S 9 kph)
- 5SM
00:35
Clear
72°F / 22°C 72°F / 22°C 100% 29.89 in
(1012 mb)
S 5.8 mph
(S 9 kph)
- 7SM
00:16
Clear
72°F / 22°C 72°F / 22°C 100% 29.92 in
(1013 mb)
S 6.9 mph
(S 11 kph)
- 7SM
Time Weather Temperature Dewpoint Humidity Pressure Winds Precip Visibility


Weather for websites

WeatherForYou.com, LLC is not responsible for any damages or problems caused by this service. Current weather conditions are obtained from the closest station including government and personal stations which may have varying degrees of accuracy. Weather forecasts are derived from the NOAA NDFD. Like all things, this site belongs to Jesus Christ... He just trusts me to maintain it. If you have any questions or comments email webmaster@weatherforyou.com

Copyright © 2014, WeatherForYou.com LLC. All rights reserved.